Station AUGA2 - Augustine Island, AK Image indicating link to RSS feed of recent meteorological observations for station AUGA2


Conditions at AUGA2 as of
(12:00 am AKDT)
0800 GMT on 06/17/2024:
     

Click on the graph icon in the table below to see a time series plot of the last five days of that observation.

5-day plot - Wind Direction Wind Direction (WDIR):ESE ( 110 deg true )
5-day plot - Wind Speed Wind Speed (WSPD): 7 kts
5-day plot - Wind Gust Wind Gust (GST): 8 kts
5-day plot - Atmospheric Pressure Atmospheric Pressure (PRES):30.10 in
5-day plot - Pressure Tendency Pressure Tendency (PTDY):-0.01 in ( Falling )
5-day plot - Air Temperature Air Temperature (ATMP): 47.1 °F
5-day plot - Wind Chill Wind Chill (CHILL): 43.2 °F
5-day plot - Wind Speed at 10 Meters Wind Speed at 10 meters (WSPD10M): 8 kts
5-day plot - Wind Speed at 20 Meters Wind Speed at 20 meters (WSPD20M): 8 kts
5-day plot -  Wind Speed, Wind Gust and Atmospheric Pressure Combined plot of Wind Speed, Gust, and Air Pressure
Continuous Winds
TIME
(AKDT)
5-day plot - Wind Direction WDIR 5-day plot - Wind Speed WSPD
12:00 amESE ( 113 deg ) 7 kts
11:50 pmSE ( 126 deg ) 6 kts
11:40 pmSE ( 129 deg ) 7 kts
11:30 pmSE ( 127 deg ) 7 kts
11:20 pmSE ( 132 deg ) 7 kts
11:10 pmSE ( 134 deg ) 8 kts
 
Peak gust during the measurement hour
TIME
(AKDT)
5-day plot - Gust Direction GDR 5-day plot - Gust Speed GST
11:09 pmSE ( 130 deg ) 11 kts
Previous observations
TIME
(AKDT)
5-day plot - Wind Direction
WDIR
 
5-day plot - Wind Speed
WSPD
kts
5-day plot - Wind Gust
GST
kts
5-day plot - Wave Height
WVHT
ft
5-day plot - Dominant Wave Period
DPD
sec
5-day plot - Average Wave Period
APD
sec
5-day plot - Mean Wave Direction
MWD
 
5-day plot - Atmospheric Pressure
PRES
in
5-day plot - Pressure Tendency
PTDY
in
5-day plot - Air Temperature
ATMP
°F
5-day plot - Water Temperature
WTMP
°F
5-day plot - Dew Point
DEWP
°F
5-day plot - Salinity
SAL
psu
5-day plot - Visibility
VIS
nmi
5-day plot - Tide (above MLLW)
TIDE
ft
2024-06-16 11:30 pmESE 7 8----30.11- 46.9-----
2024-06-16 11:00 pm SE 7 9----30.11+0.00 46.8-----
2024-06-16 10:30 pm SE 9 11----30.11- 46.6-----
2024-06-16 10:00 pmSSE 8 11----30.11+0.00 46.2-----
2024-06-16 09:30 pmSSE 10 11----30.11- 45.7-----
2024-06-16 09:00 pmSSE 10 11----30.11+0.00 46.2-----
2024-06-16 08:30 pmSSE 11 13----30.11- 46.8-----
2024-06-16 08:00 pm S 13 16----30.10-0.01 47.3-----
2024-06-16 07:30 pmSSE 12 16----30.11- 47.7-----
2024-06-16 07:00 pmSSE 14 18----30.11-0.02 48.4-----
2024-06-16 06:30 pmSSE 14 17----30.11- 50.7-----
2024-06-16 06:00 pmSSE 12 15----30.11-0.02 50.7-----
2024-06-16 05:30 pmSSE 12 15----30.11- 53.6-----
2024-06-16 05:00 pmSSE 11 13----30.12-0.03 55.6-----
2024-06-16 04:30 pmSSE 11 14----30.12- 55.0-----
2024-06-16 04:00 pmSSE 11 14----30.13-0.02 54.5-----
2024-06-16 03:30 pmSSE 8 10----30.13- 58.5-----
2024-06-16 03:00 pm SE 8 9----30.14-0.01 57.9-----
2024-06-16 02:30 pm SE 5 7----30.14- 59.0-----
2024-06-16 02:00 pmESE 6 7----30.14+0.00 56.8-----
2024-06-16 01:30 pm SE 4 6----30.14- 56.1-----
2024-06-16 01:00 pmESE 5 6----30.14+0.00 54.0-----
2024-06-16 12:30 pmESE 4 6----30.14- 53.6-----
2024-06-16 12:00 pmESE 3 5----30.15+0.00 53.6-----
2024-06-16 11:30 amNNE 4 5----30.15- 53.2-----
2024-06-16 11:00 am N 8 9----30.14+0.00 52.7-----
2024-06-16 10:30 amNNW 10 11----30.14- 52.9-----
2024-06-16 10:00 amNNE 2 4----30.15+0.01 54.5-----
2024-06-16 09:30 am N 6 8----30.14- 52.7-----
2024-06-16 09:00 am NW 7 9----30.14+0.02 57.6-----
2024-06-16 08:30 am S 7 10----30.14- 52.9-----
2024-06-16 08:00 amNNW 1 3----30.15+0.03 54.0-----
2024-06-16 07:30 amNNW 2 3----30.14- 52.7-----
2024-06-16 07:00 am N 2 3----30.14+0.01 51.8-----
2024-06-16 06:30 am NW 3 3----30.13- 52.0-----
2024-06-16 06:00 am N 2 2----30.12+0.00 51.4-----
2024-06-16 05:30 am SW 5 6----30.12- 48.7-----
2024-06-16 05:00 am W 2 3----30.12+0.00 50.9-----
2024-06-16 04:30 am- 0 1----30.12- 51.1-----
2024-06-16 04:00 am E 3 4----30.12+0.00 53.8-----
2024-06-16 03:30 am NW 3 3----30.12- 52.3-----
2024-06-16 03:00 amSSW 1 2----30.12+0.00 52.0-----
2024-06-16 02:30 am NE 2 2----30.12- 52.3-----
2024-06-16 02:00 am- 0 0----30.12+0.01 53.4-----
2024-06-16 01:30 amSSW 9 10----30.12- 49.5-----
2024-06-16 01:00 am S 12 15----30.12+0.01 49.8-----
2024-06-16 12:30 amSSW 12 15----30.11-------
2024-06-16 12:00 amSSE 12 16----30.12+0.02------